McComb, MS

3:16 AM CDT on July 25, 2017 (GMT -0500)
McComb-Pike County-Lewis

Weather History for KMCB - April, 2012

Change the Weather History Date:

Monday, April 16, 2012

  Actual Average Record
Temperature  
Mean Temperature 70 °F -  
Max Temperature 77 °F 78 °F 84 °F (1967)
Min Temperature 66 °F 52 °F 35 °F (2008)
Cooling Degree Days 6    
Growing Degree Days 20 (Base 50)    
Moisture  
Dew Point 67 °F    
Average Humidity 91    
Maximum Humidity 100    
Minimum Humidity 73    
Precipitation  
Precipitation 0.17 in - - ()
Sea Level Pressure  
Sea Level Pressure 30.10 in    
Wind  
Wind Speed 4 mph (NNE)    
Max Wind Speed 15 mph    
Max Gust Speed 21 mph    
Visibility 7 miles    
Events Rain , Thunderstorm    
Averages and records for this station are not official NWS values.
T = Trace of Precipitation, MM = Missing Value Source: NWS Daily Summary

Daily Weather History Graph

Daily Weather History Graph

Search for Another Location

Airport or City:

Trip Planner

Search our weather history database for the weather conditions in past years. The results will help you decide how hot, cold, wet, or windy it might be!

Date:

Astronomy

Apr. 16, 2012 Rise Set
Actual Time 6:32 AM CDT 7:31 PM CDT
Civil Twilight 6:07 AM CDT 7:56 PM CDT
Nautical Twilight 5:37 AM CDT 8:25 PM CDT
Astronomical Twilight 5:07 AM CDT 8:56 PM CDT
Moon 3:44 AM CDT (4/16) 3:40 PM CDT (4/16)
Length of Visible Light 13h 49m
Length of Day
12h 59m
Waning Crescent, 19% of the Moon is Illuminated
Apr 16
Waning Crescent
Apr 21
New
Apr 29
First Quarter
May 5
Full
May 12
Last Quarter

Hourly Weather History & Observations

Time (CDT) Temp. Dew Point Humidity Pressure Visibility Wind Dir Wind Speed Gust Speed Precip Events Conditions
12:53 AM 71.1 °F 69.1 °F 93% 30.00 in 9.0 mi SSE 9.2 mph - N/A   Overcast
1:53 AM 70.0 °F 69.1 °F 97% 29.99 in 7.0 mi SSE 5.8 mph - N/A   Overcast
2:53 AM 69.1 °F 69.1 °F 100% 30.00 in 6.0 mi Calm Calm - N/A   Overcast
3:53 AM 68.0 °F 68.0 °F 100% 30.01 in 5.0 mi Calm Calm - N/A   Overcast
4:32 AM 69.8 °F 68.0 °F 94% 30.04 in 6.0 mi Calm Calm - N/A   Overcast
4:53 AM 69.1 °F 68.0 °F 96% 30.03 in 6.0 mi Calm Calm - N/A   Overcast
5:17 AM 68.0 °F 66.2 °F 94% 30.04 in 4.0 mi Calm Calm - N/A   Overcast
5:41 AM 68.0 °F 66.2 °F 94% 30.06 in 5.0 mi Calm Calm - N/A   Overcast
5:53 AM 66.9 °F 66.0 °F 97% 30.05 in 4.0 mi Calm Calm - N/A   Overcast
6:07 AM 68.0 °F 66.2 °F 94% 30.07 in 6.0 mi Calm Calm - N/A   Overcast
6:19 AM 68.0 °F 66.2 °F 94% 30.08 in 5.0 mi Calm Calm - N/A   Overcast
6:26 AM 66.2 °F 66.2 °F 100% 30.07 in 3.0 mi SSE 3.5 mph - N/A   Overcast
6:32 AM 66.2 °F 66.2 °F 100% 30.07 in 1.8 mi SE 3.5 mph - N/A   Mostly Cloudy
6:48 AM 68.0 °F 66.2 °F 94% 30.08 in 2.5 mi Calm Calm - N/A   Mostly Cloudy
6:53 AM 66.9 °F 66.9 °F 100% 30.07 in 2.5 mi South 4.6 mph - N/A   Overcast
7:53 AM 71.1 °F 69.1 °F 93% 30.11 in 4.0 mi Calm Calm - N/A   Scattered Clouds
8:04 AM 71.6 °F 69.8 °F 94% 30.12 in 4.0 mi Calm Calm - N/A   Mostly Cloudy
8:53 AM 73.0 °F 70.0 °F 90% 30.12 in 6.0 mi Calm Calm - N/A   Overcast
9:05 AM 73.4 °F 69.8 °F 88% 30.13 in 6.0 mi Calm Calm - N/A   Mostly Cloudy
9:23 AM 75.2 °F 69.8 °F 83% 30.13 in 7.0 mi Calm Calm - N/A   Mostly Cloudy
9:53 AM 72.0 °F 63.0 °F 73% 30.14 in 9.0 mi NNW 15.0 mph 20.7 mph N/A   Mostly Cloudy
10:07 AM 69.8 °F 62.6 °F 78% 30.14 in 10.0 mi North 13.8 mph 20.7 mph N/A   Overcast
10:25 AM 69.8 °F 62.6 °F 78% 30.15 in 4.0 mi NNW 10.4 mph - 0.02 in Rain Rain
10:53 AM 69.1 °F 64.9 °F 87% 30.13 in 7.0 mi North 8.1 mph - 0.03 in Rain Light Rain
11:19 AM 71.6 °F 66.2 °F 83% 30.14 in 10.0 mi North 5.8 mph - 0.00 in Thunderstorm Partly Cloudy
11:51 AM 71.6 °F 66.2 °F 83% 30.15 in 10.0 mi East 4.6 mph - 0.00 in   Overcast
11:53 AM 72.0 °F 66.0 °F 81% 30.14 in 10.0 mi East 8.1 mph - 0.00 in   Overcast
12:37 PM 71.6 °F 64.4 °F 78% 30.14 in 10.0 mi NE 3.5 mph - N/A Thunderstorm Overcast
12:49 PM 71.6 °F 66.2 °F 83% 30.14 in 9.0 mi North 3.5 mph - 0.01 in Rain , Thunderstorm Light Rain
12:53 PM 71.1 °F 66.0 °F 84% 30.13 in 6.0 mi North 3.5 mph - 0.01 in Rain , Thunderstorm Light Rain
1:10 PM 69.8 °F 66.2 °F 88% 30.13 in 2.5 mi NNW 6.9 mph - 0.05 in Rain Rain
1:23 PM 69.8 °F 68.0 °F 94% 30.12 in 8.0 mi NW 12.7 mph - 0.05 in Rain Light Rain
1:53 PM 69.1 °F 66.9 °F 93% 30.13 in 10.0 mi NNW 4.6 mph - 0.05 in   Overcast
2:53 PM 69.1 °F 66.9 °F 93% 30.11 in 3.0 mi NE 3.5 mph - 0.06 in Rain Rain
3:53 PM 70.0 °F 66.9 °F 90% 30.09 in 10.0 mi ENE 4.6 mph - 0.01 in   Partly Cloudy
4:53 PM 70.0 °F 66.9 °F 90% 30.09 in 10.0 mi Variable 3.5 mph - N/A   Mostly Cloudy
5:53 PM 69.1 °F 66.9 °F 93% 30.09 in 10.0 mi Calm Calm - 0.01 in   Overcast
6:53 PM 69.1 °F 66.9 °F 93% 30.10 in 10.0 mi Calm Calm - N/A   Overcast
7:53 PM 69.1 °F 66.9 °F 93% 30.12 in 9.0 mi North 4.6 mph - N/A   Overcast
8:53 PM 69.1 °F 66.9 °F 93% 30.12 in 9.0 mi North 3.5 mph - N/A   Overcast
9:28 PM 68.0 °F 66.2 °F 94% 30.15 in 9.0 mi Variable 3.5 mph - N/A   Overcast
9:36 PM 68.0 °F 66.2 °F 94% 30.15 in 9.0 mi NE 3.5 mph - N/A   Overcast
9:53 PM 68.0 °F 66.9 °F 96% 30.14 in 8.0 mi NNE 3.5 mph - N/A   Overcast
10:53 PM 68.0 °F 66.9 °F 96% 30.14 in 8.0 mi Variable 3.5 mph - N/A   Mostly Cloudy
11:53 PM 66.9 °F 66.0 °F 97% 30.12 in 9.0 mi NE 3.5 mph - N/A   Scattered Clouds